Regional Weather Roundup
Issued by NWS Jackson, KY

Home | Current Version | Previous Version | Text Only | Print | Product List | Glossary Off
Versions: 1 2 3 4 5 6 7 8 9 10 11 12 13 14 15 16 17 18 19 20 21 22 23 24 25 26 27 28 29 30 31 32 33 34 35 36 37 38 39 40 41 42 43 44 45 46 47 48 49 50

000
ASUS43 KJKL 290310
RWRJKL

EAST KENTUCKY HOURLY WEATHER ROUNDUP
NATIONAL WEATHER SERVICE JACKSON KY
1100 PM EDT THU MAY 28 2015

NOTE: "FAIR" INDICATES FEW OR NO CLOUDS BELOW 12,000 FEET WITH
NO SIGNIFICANT WEATHER AND/OR OBSTRUCTIONS TO VISIBILITY.

* THESE REPORTS ARE NOT UNDER NWS QUALITY CONTROL AND MAY NOT
  REPORT WEATHER SUCH AS PRECIPITATION AND FOG.

KYZ079-080-083-085-087-088-110-112-115-119-120-290400
...EASTERN KENTUCKY...

CITY           SKY/WX    TMP DP  RH WIND       PRES   REMARKS
JACKSON        MOCLDY    72  66  81 CALM      30.22S
LONDON         MOCLDY    71  65  81 CALM      30.21R
SOMERSET*      FOG       64  64 100 CALM      30.22R VSB 1/2
MONTICELLO*    MOCLDY    68  68 100 CALM      30.23R
MIDDLESBORO*   CLOUDY    70  67  89 CALM      30.23S
HARLAN APT*    CLOUDY    68  66  94 CALM      30.24S
HAZARD APT*    CLEAR     70  70 100 CALM      30.22S
BLACK MTN*       N/A     63  59  88 CALM        N/A
PIKEVILLE APT* PTCLDY    70  61  73 CALM      30.23F
BIG SANDY*     MOCLDY    74  65  73 S7        30.22S
MOREHEAD APT*  CLOUDY    72  66  83 CALM      30.23R
$$

KYZ035-036-041-042-044-050-067-078-099-290400
...CENTRAL KENTUCKY...

CITY           SKY/WX    TMP DP  RH WIND       PRES   REMARKS
MT STERLING*   CLOUDY    72  68  88 CALM      30.22R
FLEMING/MASON* CLOUDY    73  66  78 CALM      30.21R
DANVILLE*      MOCLDY    64  64 100 CALM      30.21R
RICHMOND*      CLOUDY    70  66  88 CALM      30.20S
LEXINGTON      LGT RAIN  71  65  81 SE9       30.21R
FRANKFORT      LGT RAIN  72  63  73 SE7       30.18R
$$

KYZ091>093-OHZ055-061-077-WVZ005-015-034-035-042-290400
...SOUTHERN OHIO/WEST VIRGINIA...

CITY           SKY/WX    TMP DP  RH WIND       PRES   REMARKS
COVINGTON      MOCLDY    70  65  84 S5        30.18R
COLUMBUS       MOCLDY    72  62  71 CALM      30.20R
DAYTON         PTCLDY    74  62  66 S6        30.19R
WILMINGTON     CLEAR     70  62  76 E5        30.19R
HUNTINGTON     CLOUDY    71  65  81 CALM      30.20R
CHARLESTON     PTCLDY    69  66  90 CALM      30.21R
PINEVILLE*     PTCLDY    66  64  96 MISG      30.31S
BECKLEY        CLOUDY    68  61  78 CALM      30.30R
BLUEFIELD      CLOUDY    71  58  63 S5        30.32R
$$

VAZ002-007-008-TNZ017-027-036-066-071-290400
...SOUTHWEST VIRGINIA/EAST TENNESSEE...

CITY           SKY/WX    TMP DP  RH WIND       PRES   REMARKS
WISE*          CLOUDY    64  63  94 CALM      30.30S
JONESVILLE*    CLOUDY    68  66  94 CALM      30.26R
ABINGDON*      CLOUDY    69  63  82 E3        30.28R
BRISTOL        CLOUDY    68  66  93 E3        30.25R
KNOXVILLE      CLOUDY    73  66  78 W10       30.21R
OAK RIDGE      CLOUDY    72  63  73 VRB5      30.23R
CROSSVILLE     CLOUDY    68  61  78 VRB6      30.24S
NASHVILLE      MOCLDY    76  66  71 SE7       30.15R
$$

...KEY TO REMARKS...
VSB - VISIBILITY IN MILES
WCI - WIND CHILL INDEX
HX  - HEAT INDEX

$$


USA.gov is the U.S. government's official web portal to all federal, state and local government web resources and services.